This is the latest recevied weather packets stored in our database for station/object KB1MS. If no packets are shown the sender has not sent any weather packets the latest 10 day(s).
| Time | Temp. | Humidity | Pressure | Rain* | Wind** | Luminosity | Snow |
|---|---|---|---|---|---|---|---|
| 1788586376 | 18.33° C | 79% | 1008.9 hPa | 0 mm | - | 0 W/m² | - |
| 1788586075 | 17.78° C | 80% | 1008.7 hPa | 0 mm | - | 0 W/m² | - |
| 1788585770 | 17.78° C | 80% | 1008.8 hPa | 0 mm | - | 0 W/m² | - |
| 1788585470 | 17.78° C | 79% | 1008.9 hPa | 0 mm | - | 0 W/m² | - |
| 1788585167 | 18.33° C | 78% | 1009 hPa | 0 mm | - | 0 W/m² | - |
| 1788584863 | 18.33° C | 78% | 1008.6 hPa | 0 mm | - | 0 W/m² | - |
| 1788584559 | 18.33° C | 78% | 1008.9 hPa | 0 mm | - | 0 W/m² | - |
| 1788584259 | 18.33° C | 77% | 1008.8 hPa | 0 mm | - | 0 W/m² | - |
| 1788583954 | 18.33° C | 76% | 1008.6 hPa | 0 mm | - | 0 W/m² | - |
| 1788583649 | 18.89° C | 75% | 1008.9 hPa | 0 mm | - | 0 W/m² | - |
| 1788583345 | 18.89° C | 74% | 1008.9 hPa | 0 mm | - | 0 W/m² | - |
| 1788583043 | 18.89° C | 74% | 1008.8 hPa | 0 mm | - | 0 W/m² | - |
| 1788582738 | 18.89° C | 74% | 1008.6 hPa | 0 mm | - | 0 W/m² | - |
| 1788582438 | 19.44° C | 74% | 1008.7 hPa | 0 mm | - | 0 W/m² | - |
| 1788582137 | 19.44° C | 74% | 1008.6 hPa | 0 mm | - | 0 W/m² | - |
| 1788581833 | 19.44° C | 74% | 1008.7 hPa | 0 mm | - | 0 W/m² | - |
| 1788581528 | 19.44° C | 73% | 1008.6 hPa | 0 mm | - | 0 W/m² | - |
| 1788581223 | 19.44° C | 73% | 1008.7 hPa | 0 mm | - | 0 W/m² | - |
| 1788580923 | 19.44° C | 73% | 1008.7 hPa | 0 mm | - | 0 W/m² | - |
| 1788580622 | 19.44° C | 73% | 1008.7 hPa | 0 mm | - | 0 W/m² | - |
| 1788580319 | 19.44° C | 73% | 1008.7 hPa | 0 mm | - | 0 W/m² | - |
| 1788580015 | 19.44° C | 73% | 1008.8 hPa | 0 mm | - | 0 W/m² | - |
| 1788579714 | 20° C | 73% | 1008.8 hPa | 0 mm | - | 0 W/m² | - |
| 1788579413 | 20° C | 72% | 1008.8 hPa | 0 mm | - | 0 W/m² | - |
| 1788579109 | 20° C | 72% | 1008.7 hPa | 0 mm | - | 0 W/m² | - |
* Rain latest hour (hover to see other rain measurements)
** Current wind speed in m/s (hover to see current wind gust speed)